Regional Weather Roundup
Issued by NWS

Home | Current Version | Previous Version | Graphics & Text | Print | Product List | Glossary On
Versions: 1 2 3 4 5 6 7 8 9 10 11 12 13 14 15 16 17 18 19 20 21 22 23 24 25 26 27 28 29 30 31 32 33 34 35 36 37 38 39 40 41 42 43 44 45 46 47 48 49 50
000
ASUS43 KIND 202109
RWRIN

WEATHER ROUNDUP FOR INDIANA
NATIONAL WEATHER SERVICE INDIANAPOLIS IN
500 PM EDT SUN AUG 20 2017

NOTE: "FAIR" INDICATES FEW OR NO CLOUDS BELOW 12,000 FEET WITH NO
SIGNIFICANT WEATHER AND/OR OBSTRUCTIONS TO VISIBILITY.

* - STATION DOES NOT REPORT WEATHER SUCH AS PRECIPITATION OR FOG.

+ - STATION NOT QUALITY CONTROLLED BY THE NATIONAL WEATHER SERVICE.
    USE DATA WITH CAUTION...ESPECIALLY DEWPOINT AND RELATIVE
    HUMIDITY OBSERVATIONS.

INZ001>003-010>013-019-020-202200-
NORTHWEST INDIANA

CITY           SKY/WX    TMP DP  RH WIND       PRES   REMARKS
GARY /AIRPORT/ CLOUDY    86  63  45 S7        30.03S
KNOX *+        CLOUDY    82  68  61 SW3       30.04S
LA PORTE +     PTSUNNY   83  65  54 S5        30.05S
MICHIGAN CITY+ MOSUNNY   82  63  51 S8        30.04S
MONTICELLO +   MOSUNNY   86  62  43 SW3       30.03S
RENSSELAER +   CLOUDY    82  61  47 SW6       30.04S
VALPARAISO     CLOUDY    85  68  56 SW5       30.04S

$$

LMZ046-743>745-202200-
SOUTHERN LAKE MICHIGAN

STATION/POSITION TIME  TEMP    WIND        PRES    WAVE
                       AIR SEA DIR/SP/G            HT
                 (UTC) (F)     (DEG/KT/KT) (MB)    (FT)
BURNS HARBOR     2040   84     190/  9/ 12 1016.9S
MICHIGAN CITY    2040   81      50/  2/  4   N/A
5NW MICH CITY    2100   78 78   80/  2/  4   N/A     1

$$

INZ004-005-014>016-021>024-202200-
NORTH CENTRAL INDIANA

CITY           SKY/WX    TMP DP  RH WIND       PRES   REMARKS
GOSHEN         MOSUNNY   83  63  50 S6        30.05R
LOGANSPORT +   SUNNY     84  63  48 SW3       30.06S
PERU/GRISSOM   SUNNY     86  65  49 W6        30.04S
ROCHESTER +    CLOUDY   N/A N/A N/A SW6       30.05S
SOUTH BEND     MOSUNNY   85  64  49 W7        30.05R
WARSAW +       MOSUNNY   82  64  54 W5        30.06R

$$

INZ006>009-017-018-025>027-202200-
NORTHEAST INDIANA

CITY           SKY/WX    TMP DP  RH WIND       PRES   REMARKS
AUBURN +       MOSUNNY   82  63  51 NW5       30.06R
FORT WAYNE     PTSUNNY   86  63  45 SW10      30.05S
HUNTINGTON +   PTSUNNY   85  62  46 W8        30.05R

$$

INZ028-029-035-036-043>045-051>053-202200-
WEST CENTRAL INDIANA

CITY           SKY/WX    TMP DP  RH WIND       PRES   REMARKS
GREENCASTLE +  SUNNY     86  64  48 CALM      30.04F
LAFAYETTE      SUNNY     87  65  47 S6        30.02F
TERRE HAUTE    MOSUNNY   91  66  43 SW7       30.02F

$$

INZ030>032-037>040-046>048-054>057-064-065-202200-
CENTRAL INDIANA

CITY           SKY/WX    TMP DP  RH WIND       PRES   REMARKS
CP ATTERBURY + MOSUNNY   86  64  48 SE5       30.05S
COLUMBUS       PTSUNNY   90  57  33 S12       30.04S
FRANKFORT +    CLOUDY    89  68  49 CALM      30.07S
GREENWOOD *+   SUNNY     89  61  39 SW5       30.05S
INDIANAPOLIS   PTSUNNY   88  61  40 S9        30.03S
-EAGLE CREEK   PTSUNNY   91  61  36 VRB5      30.03S
KOKOMO +       SUNNY     86  62  44 W9        30.06S
MARION +       MOSUNNY   84  64  51 W7        30.06S
MT COMFORT *+  MOSUNNY   88  63  42 CALM      30.06R
SHELBYVILLE    MOSUNNY   88  62  41 SW5       30.04S
ZIONSVILLE +   SUNNY     86  64  47 NW5       30.06S

$$

INZ033-034-041-042-049-050-058-059-202200-
EAST CENTRAL INDIANA

CITY           SKY/WX    TMP DP  RH WIND       PRES   REMARKS
MUNCIE         MOSUNNY   88  63  43 W3        30.06R
RICHMOND +     SUNNY     82  64  54 SW7       30.08S

$$

INZ060-061-067>069-081>083-085>088-202200-
SOUTHWEST INDIANA

CITY           SKY/WX    TMP DP  RH WIND       PRES   REMARKS
EVANSVILLE     MOSUNNY   93  66  40 S12       30.01F HX  96
HUNTINGBURG +  SUNNY     91  74  57 S8        30.03F HX 100
WASHINGTON +   MOSUNNY   92  66  42 MISG      30.00F

$$

INZ062-063-066-070>080-084-089>092-202200-
SOUTH CENTRAL AND SOUTHEAST INDIANA

CITY           SKY/WX    TMP DP  RH WIND       PRES   REMARKS
BEDFORD +      SUNNY     90  64  43 S5        30.02F
BLOOMINGTON    MOSUNNY   88  63  43 W3        30.04S
MADISON *+     MOSUNNY   90  61  37 CALM      30.08S
NORTH VERNON + PTSUNNY   88  68  51 E6        30.06S
SEYMOUR +      SUNNY     91  66  43 SE5       30.03F

$$





USA.gov is the U.S. government's official web portal to all federal, state and local government web resources and services.